STARLINK-36341

Last updated on Wed Mar 25 2026 00:02:05 GMT+0000 (Coordinated Universal Time)

1 67918U 26036Q 26083.50002314 -.01878148 00000+0 -46614-1 0 9992 2 67918 43.0000 162.3015 0000970 302.4872 267.6068 15.42850203 6023
UTC large
Height (km)
Speed (km/s)
/
Latitude / Longitude
Inclination (degrees)
Orbital Period (minutes)
Azimuth
Elevation
Range (km)
Doppler Factor

Next 0 passes for location: London (51.5072 / 0.1276)

Sorry there are no passes over London.